Location: Blazny
(46.0612°N, 84.4033°W)
Time: 10:07:59
(UTC-04:00)

ARIANE 6 FM1 Upper Stage - Pass Details

Date: 15 September 2024
Orbit: 564 x 594 km, 62.0° (Epoch: 03 October)

Event Time Altitude Azimuth Distance (km) Brightness Sun altitude
Exits shadow 04:31:25 - 327° (NNW) 2,553 6.1 -27.3°
Reaches altitude 10° 04:33:52 10° 349° (NNW) 1,934 5.7 -26.9°
Maximum altitude 04:36:06 14° 20° (NNE) 1,708 5.8 -26.6°
Drops below altitude 10° 04:38:20 10° 50° (NE) 1,937 6.4 -26.3°
Sets 04:41:41 0° 77° (ENE) 2,839 7.3 -25.8°
